EUTELSAT 21B

Last updated on Jan. 20, 2021, 6:22 a.m. UTC

1 38992U 12062B   21019.83842639  .00000135  00000-0  00000-0 0  9997
2 38992   0.0641  18.7133 0002662 278.1819 145.9490  1.00270641 30049
UTC
Height (km)
Latitude
Longitude
Inclination
Orbital Period
UTC large
Height (km)
Speed (km/s)
/
Latitude / Longitude
Inclination (degrees)
Orbital Period (minutes)
Azimuth
Elevation
Range (km)
Doppler Factor
iOS Compass Heading
iOS Angle

Next 30 passes for location: Hong Kong

Rise time Rise Azimuth (degrees) Set time Set Azimuth (degrees) Duration Max altitude (degrees)

No matching passes for this satellites